星链-6146 (STARLINK-6146 )

导读

STARLINK-6146是美国SpaceX公司星链(Starlink)卫星互联网星座的一员,于2023年6月23日发射入轨。星链项目旨在构建全球覆盖的低轨卫星互联网,为偏远地区提供高速宽带服务,该卫星是SpaceX大规模星座组网计划中的组成部分,服务于全球卫星互联网接入的整体布局,目前已在近地轨道稳定运行,参与为全球提供低延迟互联网络的任务。

Basic Information
目录编号:
57124
目录名称:
STARLINK-6146
国际标识:
2023-090Z
轨道中心:
EARTH
卫星名称:
星链-6146
卫星全名:
星链-6146 (STARLINK-6146 )
卫星状态:
在轨 (已飞行1177 天)
发射日期:
2023-06-23 UTC
国别 :
美国 (US)
星等 :
--
This satellite is enrolled in the Space Conjunction Data Service (SCDS) and the current flight risk assessment level is: High Risk
Orbit Information
数据来源 国际轨道数据 AOE轨道数据
星历时间 2026-09-12T12:15:03+0800
11小时前
查看轨道信息
2026-09-10T14:00:00+0800
2天前
查看轨道信息
半长轴 6861.198km 6861.189km
偏心率 0.0001232 0.0000059
轨道倾角 43.002° 43.000°
近地点辐角 274.455° 208.800°
升交点赤经 308.335° 319.215°
平近点角 85.616° 341.101°
近地点 482.215km 483.011km
远地点 483.907km 483.093km
周期 94.267分钟 94.267分钟
每日圈数 15.275762 15.275792
Detailed Information
固有亮度:
5
最大亮度:
2.4
卫星平台:
Starlink v1.5
覆盖范围:
全球
运营商:
太空探索技术公司
运营商所在国:
美国
制造商(研发单位):
太空探索技术公司
制造商所在国:
美国
使用方式:
暂无
Satellite Introduction
星链(Starlink)计划是由太空探索技术公司(SpaceX)提出的一个巨型低轨卫星互联网星座项目,计划在2019年至2024年间在太空搭建由约1.2万颗卫星组成的“星链”网络,其中1584颗将部署在地球上空550千米处的近地轨道,并从2020年开始工作。该卫星仍在工作。
2D Orbit Map
3D Orbit Map
Orbit Altitude Analysis Chart
Orbit Inclination Analysis Chart
Orbit Comprehensive Analysis Chart
View Comprehensive Chart
Conjunction Data List
Event ID Objects TCA Miss Dist (km) Collision Risk Probability Collision Risk Index (CRI) Action
CDM_260915-043205-712406-762621
2026-09-15T
04:32:49+0000
0.402 km
远距离
2.58007E-4 高风险 0.83
CDM_260914-182205-712406-307221
2026-09-14T
18:22:02+0000
0.722 km
远距离
5.812033E-5 中风险 0.7
CDM_260914-050105-712406-307223
2026-09-14T
05:01:44+0000
0.790 km
远距离
4.400793E-5 中风险 0.68
CDM_260913-225905-712405-977423
OBJECT B (59774)
2026-09-13T
22:59:29+0000
0.848 km
远距离
3.916865E-5 中风险 0.67
CDM_260914-154705-712405-864621
2026-09-14T
15:47:44+0000
1.550 km
极远距离
3.722496E-6 低风险 0.46
CDM_260914-032705-712406-307222
2026-09-14T
03:27:35+0000
1.683 km
极远距离
3.494614E-6 低风险 0.46
CDM_260915-025805-712406-762621
2026-09-15T
02:58:40+0000
2.252 km
极远距离
1.685944E-6 低风险 0.4
CDM_260914-195605-712406-307221
2026-09-14T
19:56:11+0000
2.648 km
极远距离
1.236248E-6 低风险 0.37
CDM_260912-202305-712406-488922
OBJECT P (64889)
2026-09-12T
20:23:12+0000
2.833 km
极远距离
1.196787E-6 低风险 0.37
CDM_260912-141505-712406-436221
2026-09-12T
14:15:31+0000
2.955 km
极远距离
6.940673E-7 极低风险 0.32
Miss Distance Evolution Trend with All Objects
Collision Probability Evolution Trend with All Objects